Pratica di Mare, Italy

1:48 AM CET on December 05, 2016 (GMT +0100)
Pratica Di Mare Mil

Weather History for LIRE - August, 2013

Change the Weather History Date:

Thursday, August 1, 2013

  Actual Average Record
Temperature  
Mean Temperature 80 °F -  
Max Temperature 91 °F 83 °F 91 °F (2013)
Min Temperature 68 °F 67 °F 64 °F (2011)
Cooling Degree Days 14    
Growing Degree Days 30 (Base 50)    
Moisture  
Dew Point 61 °F    
Average Humidity 56    
Maximum Humidity 89    
Minimum Humidity 10    
Precipitation  
Precipitation 0.00 in - - ()
Sea Level Pressure  
Sea Level Pressure 29.96 in    
Wind  
Wind Speed 6 mph ()    
Max Wind Speed 16 mph    
Max Gust Speed -    
Visibility 13.5 miles    
Events      
Averages and records for this station are not official NWS values.
T = Trace of Precipitation, MM = Missing Value Source: Averaged Metar Reports

Daily Weather History Graph

Daily Weather History Graph

Search for Another Location

Airport or City:

Trip Planner

Search our weather history database for the weather conditions in past years. The results will help you decide how hot, cold, wet, or windy it might be!

Date:

Astronomy

Aug. 01, 2013 Rise Set
Actual Time 6:04 AM CEST 8:27 PM CEST
Civil Twilight 5:33 AM CEST 8:59 PM CEST
Nautical Twilight 4:54 AM CEST 9:37 PM CEST
Astronomical Twilight 4:11 AM CEST 10:20 PM CEST
Moon 1:28 AM CEST (8/1) 4:22 PM CEST (8/1)
Length of Visible Light 15h 25m
Length of Day
14h 23m
Waning Crescent, 25% of the Moon is Illuminated
Aug 1
Waning Crescent
Aug 6
New
Aug 14
First Quarter
Aug 21
Full
Aug 28
Last Quarter

Hourly Weather History & Observations

Time (CEST) Temp. Heat Index Dew Point Humidity Pressure Visibility Wind Dir Wind Speed Gust Speed Precip Events Conditions
12:55 AM 75.2 °F - 68.0 °F 78% 29.92 in - Variable 1.2 mph - N/A   Clear
1:55 AM 71.6 °F - 68.0 °F 88% 29.92 in - WNW 2.3 mph - N/A   Clear
2:00 AM 72 °F - 69 °F 85% 29.94 in 12 mi WNW 2.3 mph - -  
2:55 AM 71.6 °F - 62.6 °F 73% 29.95 in - North 3.5 mph - N/A   Clear
3:55 AM 69.8 °F - 60.8 °F 73% 29.95 in - NNW 3.5 mph - N/A   Clear
4:55 AM 68.0 °F - 60.8 °F 78% 29.95 in - NW 3.5 mph - N/A   Clear
5:00 AM 69 °F - 61 °F 69% 29.95 in 12 mi NW 3.5 mph - -  
6:55 AM 73.4 °F - 51.8 °F 47% 29.95 in - NNE 10.4 mph - N/A   Clear
7:55 AM 77.0 °F - 50.0 °F 39% 29.95 in - NE 8.1 mph - N/A   Clear
8:00 AM 77 °F - 49 °F 27% 29.95 in 16 mi NE 8.1 mph - -  
8:55 AM 80.6 °F - 48.2 °F 32% 29.95 in - NNE 11.5 mph - N/A   Clear
9:55 AM 86.0 °F - 48.2 °F 27% 29.98 in - North 10.4 mph - N/A   Clear
10:55 AM 89.6 °F - 41.0 °F 18% 29.98 in - North 9.2 mph - N/A   Clear
11:00 AM 90 °F - 41 °F 10% 29.97 in 19 mi North 9.2 mph - -  
11:55 AM 91.4 °F - 41.0 °F 17% 29.98 in - WNW 10.4 mph - N/A   Clear
12:55 PM 91.4 °F - 50.0 °F 24% 29.98 in 6.2 mi West 13.8 mph - N/A   Partly Cloudy
1:55 PM 87.8 °F 86.5 °F 57.2 °F 35% 29.95 in - West 15.0 mph - N/A   Clear
2:00 PM 88 °F - 57 °F 25% 29.97 in 22 mi West 15.0 mph - -  
2:55 PM 87.8 °F 87.6 °F 60.8 °F 40% 29.95 in - West 16.1 mph - N/A   Clear
3:55 PM 86.0 °F 87.3 °F 64.4 °F 48% 29.95 in - West 13.8 mph - N/A   Clear
4:55 PM 86.0 °F 89.4 °F 68.0 °F 55% 29.95 in - West 12.7 mph - N/A   Clear
5:00 PM 86 °F - 69 °F 47% 29.97 in 25 mi West 12.7 mph - -  
5:55 PM 84.2 °F 89.6 °F 71.6 °F 66% 29.95 in - West 12.7 mph - N/A   Clear
6:55 PM 84.2 °F 90.9 °F 73.4 °F 70% 29.95 in - West 11.5 mph - N/A   Clear
7:55 PM 82.4 °F 88.2 °F 73.4 °F 74% 29.98 in - West 8.1 mph - N/A   Clear
8:55 PM 78.8 °F - 73.4 °F 83% 29.98 in - NW 3.5 mph - N/A   Clear
9:55 PM 77.0 °F - 73.4 °F 89% 29.98 in - Variable 2.3 mph - N/A   Clear
10:55 PM 75.2 °F - 71.6 °F 89% 29.98 in - East 2.3 mph - N/A   Clear
11:00 PM 76 °F - 72 °F 86% 29.99 in 16 mi East 2.3 mph - -  
11:55 PM 75.2 °F - 71.6 °F 89% 29.98 in - East 5.8 mph - N/A   Clear